Wind_Speed
6 3 4 7 10 10 11 12 12 12 13 12 12 9 8 8 7 6 4 3 2 3 4 3 4 5 5 9 6 3 8 11 11 13 16 14 8 6 8 8 6 11 11 12 12
9 4 6 7 7 8 10 11 11 11 10 9 8 6 5 4 4 4 2 2 2 2 3 3 4 4 6 6 6 5 7 11 12 11 13 18 13 8 8 7 6 9 9 13 14
8 3 7 7 8 8 9 10 9 7 6 6 6 3 3 3 4 3 1 1 0 2 4 4 5 3 5 6 7 9 8 13 13 12 11 12 14 14 10 10 12 14 15 15 16
16 7 10 9 9 8 8 8 5 4 4 4 3 1 3 4 3 3 2 3 3 5 3 6 3 5 3 6 10 12 10 9 12 11 12 14 19 16 14 15 15 16 12 12 17
17 17 14 11 9 7 6 5 3 1 2 3 2 3 4 4 3 2 3 5 3 2 5 5 5 2 3 9 12 10 10 8 11 14 15 18 23 20 21 17 19 17 14 15 16
5 6 10 11 8 5 4 4 2 1 3 2 3 4 5 4 4 7 7 5 6 4 4 6 5 4 6 7 7 8 7 12 13 16 19 22 24 24 26 24 22 23 18 17 22
6 7 10 8 7 5 4 3 1 2 3 3 4 6 7 6 8 10 10 8 7 5 5 6 6 6 9 10 10 9 8 15 18 21 24 26 25 26 26 27 23 23 20 13 22
7 7 9 6 7 5 3 2 2 2 3 3 5 6 6 9 10 10 9 8 7 5 4 4 6 8 10 14 10 8 10 17 21 25 27 28 27 27 27 31 31 28 21 23 29
9 9 8 6 5 3 2 3 3 4 4 4 4 5 6 8 8 7 7 6 6 6 3 5 4 5 7 11 7 10 13 16 20 23 29 32 33 24 27 30 32 32 25 25 25
10 10 7 5 3 3 4 6 7 7 6 6 5 6 7 7 7 6 6 6 5 5 3 6 4 9 8 9 12 14 13 17 20 24 28 30 32 30 29 31 33 31 25 24 22
11 10 6 5 4 7 8 8 7 6 9 7 8 8 7 7 7 6 7 7 6 8 9 9 12 11 10 8 10 16 16 18 23 30 34 34 32 32 30 33 31 27 27 21 19
13 8 7 7 7 9 9 9 8 7 7 9 9 7 8 7 6 7 8 8 8 7 8 7 10 11 10 14 15 18 19 22 26 32 32 35 37 32 31 33 29 27 23 17 18
11 9 9 7 8 9 9 9 8 7 6 9 9 5 6 7 8 8 8 8 8 8 8 9 12 14 12 14 19 18 22 23 29 33 36 39 35 30 33 31 27 25 18 18 22
11 10 9 7 8 10 9 9 7 6 6 6 7 7 8 9 10 9 8 7 8 6 7 9 9 12 15 17 22 20 26 32 34 37 39 37 30 31 30 27 24 21 19 21 27
12 11 10 8 11 11 10 9 7 7 7 8 9 7 10 12 8 9 10 9 10 9 13 16 15 17 16 18 27 30 35 38 29 36 41 33 31 28 26 25 19 18 24 24 29
13 13 11 11 13 11 10 10 10 10 9 10 11 10 11 13 12 9 9 8 11 12 7 12 14 19 23 27 30 31 37 37 37 41 38 31 27 25 22 19 15 22 22 24 28
16 13 12 12 12 11 11 10 10 9 7 8 10 13 12 13 10 9 4 3 4 11 14 19 24 27 26 25 26 28 33 39 44 40 30 25 24 19 20 16 19 21 22 25 29
14 13 13 15 13 12 11 11 10 7 3 1 6 10 11 9 5 4 7 11 11 14 18 23 29 29 30 32 35 35 38 39 32 28 27 23 21 19 16 17 19 20 23 28 32
14 14 15 15 13 13 12 11 9 6 4 3 3 6 6 5 7 11 15 18 17 18 22 28 31 33 30 32 32 37 32 28 26 26 24 20 17 15 15 18 18 22 27 32 35
15 17 18 15 15 13 11 9 9 8 6 4 4 5 10 12 13 15 16 15 19 23 28 32 35 34 36 38 37 27 28 25 24 22 18 16 12 12 16 19 21 26 30 34 36
18 18 15 16 15 13 10 9 11 10 8 9 10 12 14 16 19 19 19 21 25 29 34 37 37 38 37 33 25 24 22 22 18 15 13 10 11 14 16 19 23 28 31 35 36
19 18 16 15 15 10 11 10 9 11 11 13 13 16 21 23 23 24 25 27 31 35 39 37 36 33 27 25 23 21 20 16 13 10 8 9 13 15 17 21 26 29 33 36 34
17 17 16 15 13 12 12 10 8 10 10 9 14 18 18 20 21 20 21 24 27 28 30 29 28 27 25 23 20 15 12 11 6 5 8 12 15 17 20 24 27 30 33 32 36
17 17 15 15 11 9 8 9 10 9 11 13 17 17 16 17 17 19 20 21 23 25 26 24 22 21 20 18 13 12 7 8 8 8 10 13 17 19 21 24 28 31 30 34 37
18 16 13 11 9 6 6 6 7 10 11 13 15 17 15 15 17 18 19 20 21 24 23 23 22 20 18 13 9 9 7 8 11 10 10 14 17 20 23 26 29 27 31 35 34
15 12 12 9 8 6 5 4 5 6 10 13 15 16 16 17 17 16 16 17 19 22 21 22 21 20 17 16 14 11 6 15 10 8 11 15 19 21 23 26 26 27 31 35 30
14 13 10 8 8 6 4 4 7 11 13 15 13 15 15 13 15 17 19 19 18 17 18 17 16 18 15 16 14 9 10 6 8 11 15 17 19 20 22 25 25 26 31 33 28
Wind_Direction
173 196 231 263 271 271 268 272 277 287 298 298 295 294 281 266 262 259 265 271 251 188 195 206 191 142 126 98 76 7 12 17 20 20 21 12 346 334 348 348 5 339 326 326 334
186 193 239 265 289 282 279 282 286 290 294 300 295 285 268 244 234 241 268 285 261 186 173 150 149 132 85 62 38 27 11 357 7 31 31 36 45 18 1 343 346 330 322 317 313
197 256 293 296 311 300 291 285 282 295 307 292 283 272 223 199 198 232 237 309 190 127 147 131 138 82 49 32 34 8 345 3 29 32 26 26 37 21 3 333 315 310 307 308 295
201 250 297 309 307 302 294 289 299 309 295 287 272 193 162 169 186 206 174 158 172 166 177 180 123 60 55 329 16 334 350 25 26 12 23 23 18 14 12 19 1 322 316 317 308
253 239 277 303 299 301 296 296 287 282 265 235 165 134 141 166 175 119 101 156 150 118 188 177 156 147 281 324 337 338 343 345 6 15 20 23 17 12 6 350 357 359 349 340 333
245 245 278 294 294 287 282 259 242 229 222 176 131 132 138 157 121 106 106 119 116 133 178 186 190 226 269 330 351 343 335 353 357 2 7 11 5 2 1 356 331 333 333 327 331
266 303 288 280 282 265 246 233 218 207 198 163 146 143 138 138 119 123 119 114 117 134 178 201 225 265 300 303 307 310 328 0 357 0 1 355 353 351 354 355 343 335 330 320 324
262 294 281 275 261 247 232 206 173 177 161 150 144 140 134 134 133 138 132 133 140 143 181 207 228 257 274 287 286 296 344 354 356 358 350 344 335 333 342 344 344 338 329 317 322
261 281 265 259 257 243 203 149 145 134 134 136 144 147 146 144 146 144 143 149 153 162 193 241 216 211 262 266 290 310 335 349 351 346 339 343 337 324 339 336 336 334 330 326 331
249 264 252 249 243 209 168 158 159 146 141 150 168 170 172 166 165 170 171 164 159 171 219 248 239 239 269 295 304 325 328 339 335 330 334 336 340 335 338 334 332 332 332 334 332
244 250 241 230 200 190 175 171 163 154 152 158 176 190 203 201 206 214 217 198 197 201 215 231 223 250 293 286 307 315 316 330 336 331 334 336 333 336 336 332 331 332 334 332 325
238 231 224 208 194 191 183 180 173 170 170 162 179 202 224 224 226 225 230 210 194 187 200 215 260 305 321 317 323 321 326 318 321 327 326 327 327 332 332 329 327 329 325 328 328
228 219 216 202 194 188 188 187 178 180 175 174 185 201 216 223 229 248 229 228 219 226 238 277 285 288 290 301 304 306 305 310 319 318 317 325 325 327 327 324 323 321 317 321 321
216 210 211 189 184 190 188 187 180 183 190 182 188 192 215 228 225 240 242 242 232 258 267 265 285 278 302 305 294 294 314 312 309 312 324 324 320 321 323 323 323 309 311 321 324
205 205 194 181 190 191 182 177 175 186 190 187 177 207 223 221 237 240 239 237 237 264 307 305 302 305 293 314 310 308 304 301 316 317 320 322 320 329 322 321 315 308 310 307 317
200 202 184 181 195 184 180 181 185 189 185 186 191 209 225 228 250 258 276 272 257 272 320 338 317 299 303 300 300 304 305 316 317 313 316 314 315 322 316 313 301 303 313 315 318
196 189 176 187 194 187 190 195 194 204 208 201 211 212 222 227 253 265 241 212 309 328 324 325 330 327 304 298 307 312 310 313 313 312 314 314 313 310 309 305 307 315 321 322 321
190 184 189 199 193 193 199 199 194 194 189 157 225 225 200 225 222 261 316 318 313 306 305 313 314 316 318 314 311 312 311 308 306 307 311 313 311 306 303 310 314 320 322 324 322
190 191 199 201 193 199 199 190 193 178 190 225 210 208 219 253 294 302 301 296 299 297 295 302 305 305 304 304 306 312 310 308 302 303 309 308 301 305 310 313 321 326 327 325 326
192 199 203 199 199 203 203 195 191 192 192 197 289 264 243 256 266 271 281 284 283 285 292 299 304 304 304 309 313 312 304 300 302 308 310 311 304 311 320 325 327 327 328 327 327
194 198 198 201 203 206 210 210 195 198 213 232 251 275 290 284 270 272 278 284 287 290 293 297 297 298 305 312 313 308 300 303 304 309 310 307 312 325 329 328 327 328 328 327 328
195 200 201 204 212 208 223 222 207 213 224 245 269 289 286 286 290 290 289 292 292 292 292 299 303 306 311 313 310 309 309 314 322 327 319 323 332 333 331 329 331 328 329 329 330
197 201 202 207 213 215 229 244 244 242 259 271 274 282 287 293 299 303 300 301 300 301 302 305 310 314 318 318 321 317 314 309 326 312 332 337 333 331 332 331 331 332 332 332 337
203 207 204 206 207 220 237 257 268 283 293 293 289 294 303 302 302 304 306 304 302 303 308 315 318 317 314 314 316 320 302 302 296 315 331 336 333 331 331 335 335 336 339 343 340
200 195 195 205 195 204 232 261 280 286 288 281 283 300 310 313 313 313 309 307 306 305 310 313 313 316 322 311 314 321 323 317 308 301 323 334 329 332 337 339 340 345 349 347 345
197 193 190 183 169 184 209 234 284 288 279 284 302 318 324 321 318 314 312 309 309 313 314 314 318 327 335 325 319 315 323 326 317 310 335 332 337 338 339 343 348 351 352 350 350
192 191 177 181 181 196 224 262 271 276 296 309 321 318 322 329 327 326 325 327 326 322 322 327 332 343 322 322 305 295 316 319 335 333 336 332 332 337 341 345 352 351 351 353 354
Height
5898 5900 5901 5902 5901 5899 5898 5898 5897 5896 5894 5894 5893 5892 5891 5891 5891 5891 5893 5895 5896 5897 5898 5900 5901 5903 5906 5909 5910 5909 5910 5910 5910 5908 5905 5903 5901 5900 5899 5899 5898 5895 5892 5891 5889
5899 5900 5901 5900 5898 5898 5897 5896 5895 5894 5893 5892 5891 5891 5891 5890 5890 5891 5894 5895 5897 5898 5899 5901 5903 5905 5908 5909 5910 5909 5910 5909 5909 5907 5905 5903 5900 5899 5898 5897 5897 5894 5892 5888 5886
5896 5897 5899 5898 5897 5897 5896 5895 5894 5893 5891 5891 5891 5891 5890 5890 5892 5893 5895 5896 5898 5899 5900 5902 5905 5907 5908 5910 5910 5910 5909 5908 5907 5906 5905 5903 5901 5899 5897 5895 5893 5891 5889 5887 5884
5895 5896 5898 5897 5896 5895 5894 5893 5892 5891 5891 5891 5891 5891 5891 5891 5894 5894 5897 5897 5899 5901 5903 5904 5906 5908 5910 5910 5911 5910 5909 5909 5907 5906 5904 5901 5899 5898 5895 5893 5889 5885 5883 5882 5880
5896 5897 5897 5896 5895 5894 5892 5892 5892 5891 5892 5891 5891 5891 5891 5893 5895 5896 5899 5899 5901 5902 5904 5906 5908 5910 5911 5912 5911 5910 5908 5908 5907 5905 5902 5899 5898 5897 5894 5890 5886 5884 5882 5879 5876
5893 5894 5895 5895 5894 5892 5891 5892 5892 5892 5892 5891 5892 5892 5893 5895 5897 5898 5900 5902 5903 5904 5905 5907 5909 5911 5911 5912 5912 5910 5909 5908 5906 5904 5901 5899 5897 5895 5892 5888 5885 5881 5878 5875 5872
5891 5892 5893 5893 5892 5891 5892 5892 5892 5892 5893 5892 5892 5894 5895 5897 5898 5900 5901 5903 5904 5905 5906 5908 5910 5912 5912 5911 5911 5910 5909 5908 5905 5903 5900 5899 5897 5893 5890 5887 5883 5880 5876 5873 5869
5890 5890 5891 5890 5891 5891 5892 5893 5893 5894 5894 5894 5895 5896 5898 5899 5900 5901 5902 5904 5905 5906 5908 5909 5910 5911 5911 5910 5910 5909 5909 5907 5904 5902 5900 5898 5895 5891 5887 5884 5880 5876 5872 5868 5864
5887 5888 5889 5890 5890 5892 5893 5894 5895 5895 5895 5896 5897 5899 5901 5901 5901 5901 5903 5904 5905 5907 5908 5908 5910 5910 5910 5909 5910 5909 5907 5905 5903 5900 5898 5895 5891 5887 5884 5880 5876 5872 5867 5863 5859
5886 5886 5887 5888 5890 5892 5894 5894 5895 5895 5896 5897 5899 5902 5902 5903 5903 5902 5903 5904 5905 5906 5907 5908 5909 5909 5908 5908 5908 5906 5904 5902 5900 5898 5895 5892 5888 5884 5880 5875 5871 5867 5862 5859 5855
5883 5884 5886 5889 5890 5892 5893 5894 5897 5897 5897 5898 5900 5901 5902 5903 5904 5903 5903 5904 5904 5905 5905 5906 5907 5907 5907 5907 5906 5904 5902 5899 5897 5894 5891 5888 5884 5880 5875 5870 5866 5861 5857 5853 5850
5882 5883 5887 5888 5889 5891 5893 5894 5895 5897 5898 5899 5900 5901 5903 5903 5904 5904 5905 5905 5905 5905 5905 5906 5905 5908 5907 5906 5903 5901 5899 5896 5893 5890 5888 5884 5880 5876 5871 5866 5861 5856 5853 5850 5847
5880 5883 5885 5887 5889 5891 5891 5893 5895 5897 5899 5900 5901 5902 5903 5904 5903 5904 5905 5905 5906 5907 5907 5908 5906 5906 5905 5904 5901 5898 5896 5892 5890 5886 5883 5879 5875 5871 5866 5861 5856 5852 5849 5847 5843
5879 5882 5884 5887 5889 5889 5891 5894 5895 5897 5899 5902 5901 5902 5903 5903 5904 5904 5905 5907 5906 5907 5908 5908 5906 5904 5902 5900 5897 5894 5891 5888 5885 5881 5878 5874 5870 5867 5861 5856 5851 5847 5846 5843 5839
5879 5881 5884 5885 5886 5889 5891 5893 5895 5897 5899 5901 5901 5901 5902 5903 5904 5904 5905 5906 5906 5906 5907 5905 5903 5901 5899 5898 5895 5891 5887 5882 5879 5875 5872 5868 5863 5860 5855 5852 5849 5846 5843 5839 5835
5878 5881 5883 5885 5886 5888 5890 5893 5895 5897 5897 5898 5899 5900 5901 5902 5903 5904 5905 5905 5905 5905 5904 5902 5900 5897 5896 5893 5890 5887 5882 5877 5873 5870 5866 5862 5860 5856 5852 5849 5846 5842 5840 5836 5831
5877 5879 5881 5883 5886 5888 5890 5893 5896 5895 5897 5898 5898 5899 5900 5902 5903 5904 5904 5903 5903 5902 5900 5899 5896 5892 5890 5886 5884 5882 5878 5872 5868 5863 5861 5858 5854 5852 5847 5844 5841 5838 5835 5831 5826
5875 5877 5880 5883 5886 5888 5891 5893 5894 5894 5895 5896 5898 5899 5900 5901 5902 5903 5902 5902 5901 5900 5897 5896 5892 5889 5885 5882 5880 5876 5872 5868 5861 5859 5856 5853 5850 5847 5843 5841 5837 5834 5831 5825 5820
5874 5877 5880 5884 5886 5888 5890 5891 5892 5894 5896 5897 5898 5900 5901 5901 5902 5901 5900 5899 5898 5897 5896 5891 5889 5886 5882 5880 5877 5872 5866 5862 5858 5855 5852 5850 5846 5843 5840 5837 5834 5830 5825 5820 5813
5873 5877 5880 5884 5886 5887 5890 5892 5892 5894 5896 5898 5898 5899 5899 5899 5899 5898 5897 5896 5894 5892 5889 5886 5881 5878 5874 5872 5869 5866 5862 5857 5853 5851 5848 5845 5842 5840 5837 5834 5830 5826 5820 5813 5807
5874 5878 5881 5883 5885 5886 5888 5891 5892 5894 5896 5897 5898 5898 5897 5896 5895 5894 5893 5892 5889 5886 5882 5879 5877 5873 5869 5866 5863 5860 5855 5852 5850 5847 5844 5842 5840 5838 5835 5831 5827 5822 5816 5809 5803
5874 5878 5880 5882 5883 5886 5887 5890 5892 5893 5895 5895 5896 5896 5894 5893 5892 5890 5889 5886 5883 5880 5876 5872 5870 5866 5864 5860 5857 5854 5850 5847 5845 5844 5841 5840 5839 5835 5832 5827 5823 5818 5811 5804 5797
5873 5876 5878 5880 5882 5885 5888 5889 5891 5892 5893 5894 5894 5892 5890 5889 5889 5886 5884 5881 5878 5874 5871 5868 5863 5860 5857 5856 5852 5849 5846 5844 5842 5841 5840 5839 5836 5832 5828 5823 5819 5813 5807 5800 5792
5872 5874 5877 5879 5882 5885 5887 5889 5890 5890 5891 5891 5889 5887 5887 5886 5884 5882 5880 5877 5873 5869 5865 5863 5860 5857 5855 5852 5849 5846 5843 5841 5840 5840 5838 5836 5833 5829 5826 5821 5815 5809 5802 5795 5787
5870 5872 5876 5879 5882 5884 5886 5888 5889 5889 5890 5888 5886 5885 5885 5883 5881 5879 5876 5872 5869 5864 5861 5859 5855 5853 5851 5848 5846 5844 5841 5839 5838 5837 5836 5834 5831 5827 5823 5818 5812 5805 5798 5791 5783
5869 5873 5877 5878 5880 5883 5885 5887 5888 5887 5885 5884 5885 5883 5882 5880 5877 5874 5872 5869 5865 5861 5858 5853 5851 5848 5845 5844 5843 5840 5839 5838 5835 5834 5833 5831 5827 5824 5819 5814 5808 5802 5796 5789 5782
5869 5874 5875 5877 5879 5882 5884 5885 5884 5883 5883 5883 5882 5880 5878 5876 5873 5870 5867 5864 5861 5858 5854 5851 5849 5846 5843 5840 5838 5837 5836 5836 5835 5833 5831 5829 5826 5821 5817 5812 5805 5801 5795 5788 5781